#timestamp,LO_Frequency,Hit,StdDev 
1604566815.2,286047000.5,N
1604566835.0,286047000.7,N
1604566835.9,286047000.7,N
1604566855.8,286047001.9,N
1604566875.6,286047003.2,N
1604566895.5,286047003.9,N
1604566915.3,286047003.3,N
1604566935.1,286047005.0,N
1604566955.9,286047006.4,N
1604566975.7,286047007.4,N
1604566995.5,286047008.2,N
1604567015.4,286047010.7,Y
1604567035.2,286047006.9,P
1604567055.1,286047004.8,N
1604567056.0,286047004.8,N
1604567075.8,286047005.8,Y
1604567095.6,286047000.7,P
1604567115.5,286046999.9,N
1604567135.3,286047001.0,N
1604567155.2,286046998.8,N
1604567175.9,286046999.2,N
1604567195.7,286046999.5,N
1604567215.6,286046998.0,N
1604567235.4,286046995.0,N
1604567255.2,286046996.2,N
1604567275.1,286046995.9,N
1604567276.0,286046995.9,N
1604567295.8,286046996.2,N
1604567315.7,286046996.0,N
1604567335.5,286046995.8,N
1604567355.3,286046997.9,N
1604567375.2,286046997.6,N
1604567395.0,286046997.3,N
1604567395.9,286046997.3,N
1604567415.8,286046999.2,N
1604567435.6,286046996.7,N
1604567455.4,286046998.8,N
1604567475.3,286046998.7,N
1604567495.1,286046999.9,N
1604567515.8,286047000.4,N
1604567535.7,286047000.6,N
1604567555.5,286046998.8,N
1604567575.4,286046996.9,N
1604567595.2,286046997.8,N
1604567615.0,286046998.0,N
1604567615.9,286046998.0,N
1604567635.8,286046997.7,N
1604567655.6,286046996.8,N
1604567675.4,286046997.2,N
1604567695.3,286046996.5,N
1604567715.1,286046999.0,N
1604567735.9,286046996.7,N
1604567755.7,286046996.5,N
1604567775.5,286046995.1,Y
1604567795.4,286046996.7,P
1604567815.2,286046996.7,P
1604567835.1,286046997.7,P
1604567836.0,286046997.7,Y
1604567855.8,286047000.9,P
1604567875.6,286046999.9,N
1604567895.5,286047002.2,N
1604567915.3,286047004.1,N
1604567935.1,286047003.6,N
1604567955.9,286047005.5,N
1604567975.7,286047005.5,N
1604567995.6,286047003.8,N
1604568015.4,286047003.9,N
1604568035.2,286047001.8,N
1604568055.1,286047001.8,N
1604568056.0,286047001.8,N
1604568075.8,286047000.6,N
1604568095.6,286047002.0,N
1604568115.5,286047003.1,N
1604568135.3,286047005.7,N
1604568155.2,286047006.8,Y
1604568175.0,286047005.3,P
1604568175.9,286047005.3,P
1604568195.7,286047003.9,N
1604568215.6,286047001.8,N
1604568235.4,286047003.4,N
1604568255.3,286047004.4,Y
1604568275.1,286046998.3,P
1604568276.0,286046998.3,N
1604568295.8,286046998.3,N
1604568315.7,286046997.7,N
1604568335.5,286046997.1,N
1604568355.4,286046999.5,N
1604568375.2,286046996.8,N
1604568395.0,286046995.3,N
1604568395.9,286046995.3,N
1604568415.8,286046997.1,N
1604568435.6,286046997.8,N
1604568455.4,286046997.0,N
1604568475.3,286046999.5,N
1604568495.1,286047000.3,N
1604568515.9,286047002.7,N
1604568535.7,286047002.4,N
1604568555.5,286047002.2,N
1604568575.4,286047002.7,N
1604568595.2,286047001.1,N
1604568615.0,286046998.7,N
1604568615.9,286046998.7,N
1604568635.8,286046998.9,N
1604568655.6,286047000.7,N
1604568675.5,286046999.4,N
1604568695.3,286046998.8,N
1604568715.1,286046999.4,N
1604568735.9,286046998.3,N
1604568755.7,286046998.4,N
1604568775.5,286046998.4,N
1604568795.4,286046999.1,N
1604568815.2,286046996.6,N
1604568835.1,286046996.5,N
1604568836.0,286046996.5,N
1604568855.8,286046999.2,N
1604568875.6,286046996.7,N
1604568895.5,286046997.0,N
1604568915.3,286046997.0,N
1604568935.2,286046996.8,N
1604568955.9,286046996.6,N
1604568975.7,286046998.7,N
1604568995.6,286046998.5,N
1604569015.4,286046998.3,N
1604569035.2,286046996.5,N
1604569055.1,286047001.2,N
1604569056.0,286047001.2,N
1604569075.8,286046998.6,N
1604569095.7,286047001.2,N
1604569115.5,286046999.2,N
1604569135.3,286046996.5,N
1604569155.2,286046999.3,N
1604569175.0,286047006.2,Y
1604569175.9,286047006.2,P
1604569195.8,286047010.6,N
1604569215.6,286047008.9,N
1604569235.4,286047006.6,N
1604569255.3,286047004.6,N
1604569275.1,286047003.3,N
1604569295.8,286047003.8,N
1604569315.7,286047001.7,N
1604569335.5,286047004.3,N
1604569355.4,286047003.9,N
1604569375.2,286047001.4,N
1604569395.0,286047004.2,N
1604569395.9,286047004.2,N
1604569415.8,286047002.0,N
1604569435.6,286047002.2,N
1604569455.4,286047001.5,N
1604569475.3,286047002.7,N
1604569495.1,286047000.1,N
1604569515.9,286046999.7,N
1604569535.7,286046998.6,N
1604569555.5,286047000.4,N
1604569575.4,286047002.3,N
1604569595.2,286046999.7,N
1604569615.0,286047000.6,N
1604569615.9,286047000.6,N
1604569635.8,286047000.5,N
1604569655.6,286047000.8,N
1604569675.5,286047000.1,N
1604569695.3,286047002.8,N
1604569715.1,286047002.6,N
1604569735.9,286047001.5,N
1604569755.7,286047001.5,N
1604569775.6,286047002.5,N
1604569795.4,286047000.6,N
1604569815.2,286047000.0,N
1604569835.1,286047000.1,N
1604569836.0,286047000.1,N
1604569855.8,286047001.1,N
1604569875.7,286047000.8,N
1604569895.5,286047001.0,N
1604569915.3,286047000.6,N
1604569935.2,286047000.2,N
1604569955.0,286047002.7,N
1604569955.9,286047002.7,N
1604569975.7,286047002.8,N
1604569995.6,286047000.8,N
1604570015.4,286046999.4,N
1604570035.3,286046996.6,Y
1604570055.1,286046998.9,P
1604570075.8,286046999.5,N
1604570095.7,286046998.7,N
1604570115.5,286046999.1,N
1604570135.4,286046997.0,Y
1604570155.2,286046999.5,P
1604570175.0,286046996.9,P
1604570175.9,286046996.9,N
1604570195.8,286046997.2,N
1604570215.6,286046997.5,N
1604570235.5,286046995.0,Y
1604570255.3,286046997.4,P
1604570275.1,286046997.7,P
1604570295.9,286047002.5,P
1604570315.7,286047002.7,N
1604570335.5,286047000.2,N
1604570355.4,286047001.6,N
1604570375.2,286047006.8,Y
1604570395.1,286047008.1,P
1604570396.0,286047008.1,N
